Time,TemperatureF,DewpointF,PressureIn,WindDirection,WindDirectionDegrees,WindSpeedMPH,WindSpeedGustMPH,Humidity,HourlyPrecipIn,Conditions,Clouds,dailyrainin,SoftwareType,DateUTC
2013-01-12 00:02:00,46.0,39.0,29.59,North,0,0.0,6.0,75,0.00,,,0.04,,2013-01-12 06:02:00,
2013-01-12 00:12:00,46.0,39.0,29.59,North,0,0.0,6.0,75,0.00,,,0.04,,2013-01-12 06:12:00,
2013-01-12 00:22:00,45.0,37.0,29.60,WSW,244,1.0,6.0,74,0.00,,,0.04,,2013-01-12 06:22:00,
2013-01-12 00:32:00,46.0,38.0,29.60,SSW,199,1.0,11.0,74,0.00,,,0.04,,2013-01-12 06:32:00,
2013-01-12 00:42:00,46.0,38.0,29.60,SSW,199,1.0,11.0,74,0.00,,,0.04,,2013-01-12 06:42:00,
2013-01-12 00:52:00,46.0,38.0,29.60,SW,222,2.0,11.0,73,0.00,,,0.04,,2013-01-12 06:52:00,
2013-01-12 01:02:00,47.0,38.0,29.60,SW,221,2.0,10.0,72,0.00,,,0.04,,2013-01-12 07:02:00,
2013-01-12 01:12:00,47.0,38.0,29.61,SW,223,2.0,8.0,71,0.00,,,0.04,,2013-01-12 07:12:00,
2013-01-12 01:22:00,47.0,38.0,29.61,SW,223,2.0,8.0,71,0.00,,,0.04,,2013-01-12 07:22:00,
2013-01-12 01:32:00,47.0,38.0,29.61,SW,221,3.0,9.0,70,0.00,,,0.04,,2013-01-12 07:32:00,
2013-01-12 01:42:00,47.0,38.0,29.61,SW,221,3.0,9.0,70,0.00,,,0.04,,2013-01-12 07:42:00,
2013-01-12 01:52:00,47.0,38.0,29.61,SW,221,3.0,9.0,70,0.00,,,0.04,,2013-01-12 07:52:00,
2013-01-12 02:02:00,48.0,38.0,29.61,SW,232,4.0,11.0,69,0.00,,,0.04,,2013-01-12 08:02:00,
2013-01-12 02:11:00,48.0,38.0,29.61,SW,232,4.0,11.0,69,0.00,,,0.04,,2013-01-12 08:11:00,
2013-01-12 02:22:00,48.0,38.0,29.62,SW,232,4.0,11.0,69,0.00,,,0.04,,2013-01-12 08:22:00,
2013-01-12 02:32:00,49.0,39.0,29.62,SW,224,4.0,12.0,69,0.00,,,0.04,,2013-01-12 08:32:00,
2013-01-12 02:42:00,49.0,39.0,29.62,SW,224,4.0,12.0,69,0.00,,,0.04,,2013-01-12 08:42:00,
2013-01-12 02:53:00,49.0,39.0,29.62,SW,236,3.0,10.0,68,0.00,,,0.04,,2013-01-12 08:53:00,
2013-01-12 03:02:00,49.0,39.0,29.62,SW,234,4.0,13.0,68,0.00,,,0.04,,2013-01-12 09:02:00,
2013-01-12 03:12:00,49.0,39.0,29.62,SW,234,4.0,13.0,68,0.00,,,0.04,,2013-01-12 09:12:00,
2013-01-12 03:22:00,49.0,39.0,29.62,SW,220,4.0,11.0,68,0.00,,,0.04,,2013-01-12 09:22:00,
2013-01-12 03:32:00,49.0,39.0,29.62,SW,220,4.0,11.0,68,0.00,,,0.04,,2013-01-12 09:32:00,
2013-01-12 03:42:00,49.0,39.0,29.62,SW,220,4.0,11.0,68,0.00,,,0.04,,2013-01-12 09:42:00,
2013-01-12 03:53:00,49.0,39.0,29.62,SW,217,3.0,12.0,68,0.00,,,0.04,,2013-01-12 09:53:00,
2013-01-12 04:02:00,49.0,39.0,29.61,SW,230,4.0,14.0,67,0.00,,,0.04,,2013-01-12 10:02:00,
2013-01-12 04:12:00,49.0,39.0,29.61,SW,230,4.0,14.0,67,0.00,,,0.04,,2013-01-12 10:12:00,
2013-01-12 04:22:00,49.0,39.0,29.62,SW,219,4.0,13.0,67,0.00,,,0.04,,2013-01-12 10:22:00,
2013-01-12 04:32:00,49.0,39.0,29.62,SW,215,5.0,12.0,67,0.00,,,0.03,,2013-01-12 10:32:00,
2013-01-12 04:42:00,49.0,39.0,29.62,SW,215,5.0,12.0,67,0.00,,,0.03,,2013-01-12 10:42:00,
2013-01-12 04:52:00,49.0,39.0,29.62,SW,225,2.0,11.0,67,0.00,,,0.03,,2013-01-12 10:52:00,
2013-01-12 05:02:00,49.0,39.0,29.62,SW,225,2.0,11.0,67,0.00,,,0.03,,2013-01-12 11:02:00,
2013-01-12 05:12:00,49.0,39.0,29.62,SW,233,5.0,13.0,67,0.00,,,0.03,,2013-01-12 11:12:00,
2013-01-12 05:22:00,49.0,39.0,29.62,SW,233,5.0,13.0,67,0.00,,,0.03,,2013-01-12 11:22:00,
2013-01-12 05:32:00,49.0,39.0,29.62,SW,233,5.0,13.0,67,0.00,,,0.03,,2013-01-12 11:32:00,
2013-01-12 05:43:00,49.0,39.0,29.62,SW,233,5.0,13.0,67,0.00,,,0.03,,2013-01-12 11:43:00,
2013-01-12 05:53:00,50.0,39.0,29.63,SW,232,4.0,12.0,67,0.00,,,0.03,,2013-01-12 11:53:00,
2013-01-12 06:02:00,50.0,39.0,29.64,SW,236,6.0,15.0,67,0.00,,,0.03,,2013-01-12 12:02:00,
2013-01-12 06:12:00,50.0,39.0,29.64,SW,236,6.0,15.0,67,0.00,,,0.03,,2013-01-12 12:12:00,
2013-01-12 06:22:00,49.0,39.0,29.65,SW,235,4.0,15.0,67,0.00,,,0.03,,2013-01-12 12:22:00,
2013-01-12 06:32:00,49.0,39.0,29.66,SW,233,6.0,14.0,67,0.00,,,0.03,,2013-01-12 12:32:00,
2013-01-12 06:42:00,49.0,39.0,29.66,SW,233,6.0,14.0,67,0.00,,,0.03,,2013-01-12 12:42:00,
2013-01-12 06:53:00,49.0,39.0,29.66,SW,233,6.0,14.0,67,0.00,,,0.03,,2013-01-12 12:53:00,
2013-01-12 07:02:00,46.0,36.0,29.70,WSW,249,10.0,21.0,67,0.00,,,0.01,,2013-01-12 13:02:00,
2013-01-12 07:12:00,46.0,36.0,29.70,WSW,249,10.0,21.0,67,0.00,,,0.01,,2013-01-12 13:12:00,
2013-01-12 07:22:00,44.0,34.0,29.70,SW,236,7.0,16.0,68,0.00,,,0.01,,2013-01-12 13:22:00,
2013-01-12 07:33:00,43.0,33.0,29.72,WSW,238,2.0,14.0,68,0.00,,,0.00,,2013-01-12 13:33:00,
2013-01-12 07:42:00,43.0,33.0,29.72,WSW,238,2.0,14.0,68,0.00,,,0.00,,2013-01-12 13:42:00,
2013-01-12 07:53:00,43.0,33.0,29.72,WSW,238,2.0,14.0,68,0.00,,,0.00,,2013-01-12 13:53:00,
2013-01-12 08:02:00,41.0,32.0,29.75,WSW,246,4.0,12.0,70,0.00,,,0.00,,2013-01-12 14:02:00,
2013-01-12 08:12:00,41.0,32.0,29.75,WSW,246,4.0,12.0,70,0.00,,,0.00,,2013-01-12 14:12:00,
2013-01-12 08:22:00,39.0,30.0,29.78,WSW,256,7.0,18.0,71,0.00,,,0.00,,2013-01-12 14:22:00,
2013-01-12 08:33:00,38.0,29.0,29.78,WSW,255,6.0,16.0,71,0.00,,,0.00,,2013-01-12 14:33:00,
2013-01-12 08:43:00,38.0,29.0,29.78,WSW,255,6.0,16.0,71,0.00,,,0.00,,2013-01-12 14:43:00,
2013-01-12 08:53:00,37.0,28.0,29.80,West,259,4.0,11.0,71,0.00,,,0.00,,2013-01-12 14:53:00,
2013-01-12 09:03:00,37.0,29.0,29.80,WSW,249,5.0,21.0,72,0.00,,,0.00,,2013-01-12 15:03:00,
2013-01-12 09:12:00,36.0,28.0,29.81,WSW,243,6.0,15.0,72,0.00,,,0.00,,2013-01-12 15:12:00,
2013-01-12 09:22:00,36.0,28.0,29.81,WSW,243,6.0,15.0,72,0.00,,,0.00,,2013-01-12 15:22:00,
2013-01-12 09:33:00,36.0,28.0,29.82,West,261,8.0,21.0,72,0.00,,,0.00,,2013-01-12 15:33:00,
2013-01-12 09:42:00,36.0,28.0,29.82,West,261,8.0,21.0,72,0.00,,,0.00,,2013-01-12 15:42:00,
2013-01-12 09:53:00,35.0,27.0,29.82,West,270,7.0,20.0,72,0.00,,,0.00,,2013-01-12 15:53:00,
2013-01-12 10:03:00,36.0,28.0,29.83,West,260,7.0,16.0,73,0.00,,,0.00,,2013-01-12 16:03:00,
2013-01-12 10:12:00,36.0,28.0,29.83,West,260,7.0,16.0,73,0.00,,,0.00,,2013-01-12 16:12:00,
2013-01-12 10:23:00,35.0,27.0,29.83,WSW,247,6.0,16.0,72,0.00,,,0.00,,2013-01-12 16:23:00,
2013-01-12 10:33:00,35.0,27.0,29.84,WSW,255,5.0,15.0,72,0.00,,,0.00,,2013-01-12 16:33:00,
2013-01-12 10:42:00,35.0,27.0,29.85,West,262,5.0,13.0,73,0.00,,,0.00,,2013-01-12 16:42:00,
2013-01-12 10:53:00,35.0,27.0,29.85,West,262,5.0,13.0,73,0.00,,,0.00,,2013-01-12 16:53:00,
2013-01-12 11:02:00,34.0,26.0,29.86,West,263,6.0,14.0,72,0.00,,,0.00,,2013-01-12 17:02:00,
2013-01-12 11:12:00,34.0,26.0,29.86,West,263,6.0,14.0,72,0.00,,,0.00,,2013-01-12 17:12:00,
2013-01-12 11:22:00,35.0,27.0,29.86,West,270,4.0,16.0,72,0.00,,,0.00,,2013-01-12 17:22:00,
2013-01-12 11:33:00,35.0,27.0,29.86,WSW,250,5.0,12.0,72,0.00,,,0.00,,2013-01-12 17:33:00,
2013-01-12 11:42:00,35.0,27.0,29.86,WSW,250,5.0,12.0,72,0.00,,,0.00,,2013-01-12 17:42:00,
2013-01-12 11:53:00,33.0,25.0,29.86,WSW,248,4.0,15.0,72,0.00,,,0.00,,2013-01-12 17:53:00,
2013-01-12 12:03:00,33.0,25.0,29.87,WSW,253,6.0,15.0,72,0.00,,,0.00,,2013-01-12 18:03:00,
2013-01-12 12:12:00,33.0,25.0,29.87,WSW,253,6.0,15.0,72,0.00,,,0.00,,2013-01-12 18:12:00,
2013-01-12 12:22:00,33.0,25.0,29.86,West,263,5.0,14.0,72,0.00,,,0.00,,2013-01-12 18:22:00,
2013-01-12 12:33:00,33.0,25.0,29.87,WSW,258,3.0,16.0,72,0.00,,,0.00,,2013-01-12 18:33:00,
2013-01-12 12:42:00,33.0,25.0,29.87,WSW,258,3.0,16.0,72,0.00,,,0.00,,2013-01-12 18:42:00,
2013-01-12 12:53:00,33.0,25.0,29.86,SW,230,3.0,10.0,72,0.00,,,0.00,,2013-01-12 18:53:00,
2013-01-12 13:03:00,33.0,25.0,29.85,WSW,251,5.0,12.0,71,0.00,,,0.00,,2013-01-12 19:03:00,
2013-01-12 13:12:00,33.0,25.0,29.85,WSW,251,5.0,12.0,71,0.00,,,0.00,,2013-01-12 19:12:00,
2013-01-12 13:23:00,33.0,25.0,29.88,SW,231,5.0,10.0,72,0.00,,,0.00,,2013-01-12 19:23:00,
2013-01-12 13:33:00,33.0,25.0,29.88,WSW,246,5.0,12.0,72,0.00,,,0.00,,2013-01-12 19:33:00,
2013-01-12 13:42:00,33.0,25.0,29.88,WSW,246,5.0,12.0,72,0.00,,,0.00,,2013-01-12 19:42:00,
2013-01-12 13:53:00,33.0,25.0,29.88,WSW,246,5.0,12.0,72,0.00,,,0.00,,2013-01-12 19:53:00,
2013-01-12 14:02:00,33.0,25.0,29.88,WSW,246,5.0,12.0,72,0.00,,,0.00,,2013-01-12 20:02:00,
2013-01-12 14:12:00,32.0,24.0,29.90,WSW,242,4.0,12.0,72,0.00,,,0.00,,2013-01-12 20:12:00,
2013-01-12 14:22:00,32.0,24.0,29.90,WSW,242,4.0,12.0,72,0.00,,,0.00,,2013-01-12 20:22:00,
2013-01-12 14:33:00,32.0,24.0,29.90,West,263,2.0,12.0,73,0.00,,,0.00,,2013-01-12 20:33:00,
2013-01-12 14:43:00,32.0,24.0,29.90,West,263,2.0,12.0,73,0.00,,,0.00,,2013-01-12 20:43:00,
2013-01-12 14:53:00,32.0,24.0,29.90,West,267,4.0,13.0,73,0.00,,,0.00,,2013-01-12 20:53:00,
2013-01-12 15:02:00,31.0,23.0,29.91,West,260,3.0,16.0,72,0.00,,,0.00,,2013-01-12 21:02:00,
2013-01-12 15:12:00,31.0,23.0,29.92,WSW,258,2.0,8.0,73,0.00,,,0.00,,2013-01-12 21:12:00,
2013-01-12 15:22:00,31.0,23.0,29.92,WSW,258,2.0,8.0,73,0.00,,,0.00,,2013-01-12 21:22:00,
2013-01-12 15:33:00,31.0,23.0,29.92,West,259,2.0,15.0,73,0.00,,,0.00,,2013-01-12 21:33:00,
2013-01-12 15:42:00,31.0,23.0,29.92,West,259,2.0,15.0,73,0.00,,,0.00,,2013-01-12 21:42:00,
2013-01-12 15:53:00,31.0,23.0,29.92,West,259,2.0,12.0,73,0.00,,,0.00,,2013-01-12 21:53:00,
2013-01-12 16:02:00,31.0,23.0,29.93,West,263,2.0,12.0,73,0.00,,,0.00,,2013-01-12 22:02:00,
2013-01-12 16:12:00,31.0,23.0,29.93,West,263,2.0,12.0,73,0.00,,,0.00,,2013-01-12 22:12:00,
2013-01-12 16:22:00,30.0,22.0,29.93,West,261,3.0,11.0,73,0.00,,,0.00,,2013-01-12 22:22:00,
2013-01-12 16:33:00,30.0,22.0,29.93,West,271,4.0,18.0,73,0.00,,,0.00,,2013-01-12 22:33:00,
2013-01-12 16:43:00,30.0,22.0,29.93,West,271,4.0,18.0,73,0.00,,,0.00,,2013-01-12 22:43:00,
2013-01-12 16:53:00,30.0,22.0,29.94,West,271,2.0,12.0,73,0.00,,,0.00,,2013-01-12 22:53:00,
2013-01-12 17:02:00,30.0,22.0,29.95,North,0,0.0,9.0,73,0.00,,,0.00,,2013-01-12 23:02:00,
2013-01-12 17:12:00,30.0,22.0,29.95,West,271,4.0,12.0,73,0.00,,,0.00,,2013-01-12 23:12:00,
2013-01-12 17:22:00,30.0,22.0,29.95,West,271,4.0,12.0,73,0.00,,,0.00,,2013-01-12 23:22:00,
2013-01-12 17:33:00,30.0,22.0,29.95,WNW,282,3.0,11.0,73,0.00,,,0.00,,2013-01-12 23:33:00,
2013-01-12 17:42:00,30.0,22.0,29.95,WNW,282,3.0,11.0,73,0.00,,,0.00,,2013-01-12 23:42:00,
2013-01-12 17:53:00,29.0,21.0,29.94,West,267,2.0,12.0,73,0.00,,,0.00,,2013-01-12 23:53:00,
2013-01-12 18:03:00,29.0,21.0,29.93,West,259,4.0,10.0,73,0.00,,,0.00,,2013-01-13 00:03:00,
2013-01-12 18:12:00,29.0,21.0,29.93,West,259,4.0,10.0,73,0.00,,,0.00,,2013-01-13 00:12:00,
2013-01-12 18:22:00,29.0,21.0,29.91,West,270,3.0,10.0,73,0.00,,,0.00,,2013-01-13 00:22:00,
2013-01-12 18:32:00,28.0,20.0,29.91,West,264,1.0,7.0,73,0.00,,,0.00,,2013-01-13 00:32:00,
2013-01-12 18:42:00,28.0,20.0,29.91,West,264,1.0,7.0,73,0.00,,,0.00,,2013-01-13 00:42:00,
2013-01-12 18:53:00,28.0,20.0,29.91,West,276,4.0,8.0,73,0.00,,,0.00,,2013-01-13 00:53:00,
2013-01-12 19:02:00,28.0,21.0,29.95,West,268,1.0,6.0,74,0.00,,,0.00,,2013-01-13 01:02:00,
2013-01-12 19:12:00,28.0,21.0,29.95,West,268,1.0,6.0,74,0.00,,,0.00,,2013-01-13 01:12:00,
2013-01-12 19:22:00,28.0,21.0,29.93,WNW,288,1.0,6.0,74,0.00,,,0.00,,2013-01-13 01:22:00,
2013-01-12 19:32:00,28.0,21.0,29.93,West,272,2.0,8.0,74,0.00,,,0.00,,2013-01-13 01:32:00,
2013-01-12 19:43:00,28.0,21.0,29.93,West,272,2.0,8.0,74,0.00,,,0.00,,2013-01-13 01:43:00,
2013-01-12 19:53:00,28.0,21.0,29.96,WSW,255,2.0,9.0,74,0.00,,,0.00,,2013-01-13 01:53:00,
2013-01-12 20:02:00,28.0,21.0,29.97,West,277,1.0,8.0,74,0.00,,,0.00,,2013-01-13 02:02:00,
2013-01-12 20:12:00,28.0,21.0,29.97,West,277,1.0,8.0,74,0.00,,,0.00,,2013-01-13 02:12:00,
2013-01-12 20:22:00,28.0,20.0,29.98,West,273,2.0,10.0,73,0.00,,,0.00,,2013-01-13 02:22:00,
2013-01-12 20:32:00,28.0,20.0,29.98,West,277,2.0,9.0,73,0.00,,,0.00,,2013-01-13 02:32:00,
2013-01-12 20:42:00,28.0,20.0,29.98,West,277,2.0,9.0,73,0.00,,,0.00,,2013-01-13 02:42:00,
2013-01-12 20:53:00,27.0,20.0,29.98,West,262,3.0,9.0,74,0.00,,,0.00,,2013-01-13 02:53:00,
2013-01-12 21:02:00,27.0,20.0,29.98,North,0,0.0,8.0,73,0.00,,,0.00,,2013-01-13 03:02:00,
2013-01-12 21:12:00,27.0,20.0,29.98,North,0,0.0,8.0,73,0.00,,,0.00,,2013-01-13 03:12:00,
2013-01-12 21:22:00,27.0,20.0,29.97,North,0,0.0,7.0,74,0.00,,,0.00,,2013-01-13 03:22:00,
2013-01-12 21:33:00,27.0,20.0,29.97,West,276,3.0,11.0,74,0.00,,,0.00,,2013-01-13 03:33:00,
2013-01-12 21:42:00,27.0,20.0,29.97,West,276,3.0,11.0,74,0.00,,,0.00,,2013-01-13 03:42:00,
2013-01-12 21:53:00,27.0,20.0,29.97,West,279,2.0,8.0,74,0.00,,,0.00,,2013-01-13 03:53:00,
2013-01-12 22:02:00,26.0,19.0,29.97,West,262,2.0,10.0,74,0.00,,,0.00,,2013-01-13 04:02:00,
2013-01-12 22:12:00,26.0,19.0,29.97,West,262,2.0,10.0,74,0.00,,,0.00,,2013-01-13 04:12:00,
2013-01-12 22:22:00,26.0,19.0,29.95,West,276,1.0,7.0,74,0.00,,,0.00,,2013-01-13 04:22:00,
2013-01-12 22:32:00,26.0,19.0,29.95,West,276,1.0,7.0,74,0.00,,,0.00,,2013-01-13 04:32:00,
2013-01-12 22:42:00,26.0,19.0,29.95,West,276,1.0,7.0,74,0.00,,,0.00,,2013-01-13 04:42:00,
2013-01-12 22:53:00,26.0,19.0,29.94,West,270,4.0,8.0,73,0.00,,,0.00,,2013-01-13 04:53:00,
2013-01-12 23:03:00,25.0,18.0,29.94,WNW,298,5.0,9.0,73,0.00,,,0.00,,2013-01-13 05:03:00,
2013-01-12 23:12:00,25.0,18.0,29.94,WNW,298,5.0,9.0,73,0.00,,,0.00,,2013-01-13 05:12:00,
2013-01-12 23:22:00,24.0,17.0,29.91,NNW,328,1.0,9.0,73,0.00,,,0.00,,2013-01-13 05:22:00,
2013-01-12 23:32:00,24.0,17.0,29.91,NW,317,1.0,8.0,73,0.00,,,0.00,,2013-01-13 05:32:00,
2013-01-12 23:42:00,24.0,17.0,29.91,NW,317,1.0,8.0,73,0.00,,,0.00,,2013-01-13 05:42:00,
2013-01-12 23:53:00,24.0,17.0,29.91,NW,309,2.0,9.0,73,0.00,,,0.00,,2013-01-13 05:53:00,